1512486000.04,7508,3.31,73316.8,-9.95,-10.75,-10.63,0,*68
1512486001.32,7509,3.31,73342.3,-9.95,-10.63,-10.63,0,*6E
1512486002.56,7510,3.31,73340.0,-9.97,-10.63,-10.53,0,*67
1512486003.81,7511,3.31,73342.0,-9.95,-10.63,-10.49,0,*6F
1512486005.09,7512,3.31,73314.8,-9.95,-10.63,-10.63,0,*64
1512486006.32,7513,3.31,73290.0,-9.97,-10.53,-10.67,0,*60
1512486007.58,7514,3.31,73290.5,-9.97,-10.63,-10.63,0,*60
1512486008.87,7515,3.31,73292.5,-9.95,-10.63,-10.63,0,*63
1512486010.13,7516,3.31,73296.0,-9.97,-10.63,-10.63,0,*62
1512486011.36,7517,3.31,73326.0,-9.97,-10.49,-10.63,0,*6B
1512486012.56,7518,3.31,73326.0,-9.97,-10.53,-10.53,0,*6C
1512486013.78,7519,3.31,73320.5,-9.97,-10.53,-10.63,0,*6E
1512486015.05,7520,3.31,73330.3,-9.97,-10.67,-10.63,0,*63
1512486016.33,7521,3.31,73338.5,-9.95,-10.67,-10.63,0,*60
1512486017.62,7522,3.31,73322.8,-9.95,-10.63,-10.67,0,*63
1512486018.9,7523,3.31,73328.0,-9.95,-10.63,-10.63,0,*66
1512486020.16,7524,3.31,73326.5,-9.97,-10.67,-10.63,0,*67
1512486021.39,7525,3.31,73320.8,-9.97,-10.53,-10.63,0,*61
1512486022.62,7526,3.31,73316.5,-9.97,-10.63,-10.53,0,*62
1512486023.82,7527,3.31,73316.5,-9.97,-10.53,-10.53,0,*60
1512486025.09,7528,3.31,73316.8,-9.97,-10.67,-10.67,0,*6F
1512486026.35,7529,3.31,73308.8,-9.97,-10.63,-10.63,0,*6E
1512486027.55,7530,3.31,73304.3,-9.97,-10.49,-10.53,0,*6D
1512486028.75,7531,3.31,73310.8,-9.97,-10.53,-10.53,0,*67
1512486029.95,7532,3.31,73312.0,-9.97,-10.53,-10.53,0,*64
1512486031.17,7533,3.31,73308.8,-9.95,-10.49,-10.53,0,*6C
1512486032.43,7534,3.31,73300.0,-9.95,-10.63,-10.53,0,*63
1512486033.69,7535,3.31,73292.0,-9.97,-10.63,-10.63,0,*63
1512486034.97,7536,3.31,73304.3,-9.95,-10.63,-10.63,0,*62
1512486036.25,7537,3.31,73308.3,-9.95,-10.63,-10.63,0,*63
1512486037.48,7538,3.31,73306.3,-9.97,-10.53,-10.63,0,*6D
1512486038.76,7539,3.31,73304.5,-9.95,-10.63,-10.67,0,*69
1512486040.05,7540,3.31,73302.3,-9.99,-10.71,-10.67,0,*68
1512486041.31,7541,3.31,73304.0,-9.97,-10.63,-10.67,0,*64
1512486042.58,7542,3.31,73306.0,-9.97,-10.63,-10.67,0,*67
1512486043.84,7543,3.31,73308.5,-9.97,-10.63,-10.63,0,*62
1512486045.12,7544,3.31,73310.3,-9.95,-10.63,-10.67,0,*63
1512486046.39,7545,3.31,73312.0,-9.97,-10.67,-10.67,0,*64
1512486047.68,7546,3.31,73312.0,-9.95,-10.67,-10.63,0,*61
1512486048.94,7547,3.31,73310.5,-9.97,-10.63,-10.67,0,*62
1512486050.21,7548,3.31,73304.0,-9.97,-10.67,-10.67,0,*69
1512486051.47,7549,3.31,73292.0,-9.97,-10.67,-10.67,0,*68
1512486052.76,7550,3.31,73286.5,-9.95,-10.67,-10.67,0,*62
1512486054.05,7551,3.31,73280.3,-9.95,-10.67,-10.67,0,*63
1512486055.33,7552,3.31,73268.0,-9.95,-10.63,-10.63,0,*60
1512486056.61,7553,3.31,73254.0,-9.95,-10.75,-10.67,0,*62
1512486057.89,7554,3.31,73280.5,-9.95,-10.75,-10.63,0,*61
1512486059.17,7555,3.31,73274.0,-9.95,-10.63,-10.63,0,*67
1512486060.44,7556,3.31,73270.8,-9.97,-10.67,-10.67,0,*66
1512486061.7,7557,3.31,73252.0,-9.97,-10.63,-10.63,0,*67
1512486062.96,7558,3.31,73254.8,-9.97,-10.63,-10.63,0,*68
1512486064.23,7559,3.31,73266.8,-9.97,-10.67,-10.67,0,*69
1512486065.49,7560,3.31,73290.5,-9.97,-10.63,-10.63,0,*63
1512486066.74,7561,3.31,73284.0,-9.95,-10.63,-10.49,0,*68
1512486067.98,7562,3.31,73288.3,-9.97,-10.63,-10.53,0,*62
1512486069.18,7563,3.31,73296.8,-9.97,-10.53,-10.53,0,*60
1512486070.4,7564,3.31,73292.5,-9.95,-10.53,-10.53,0,*65
1512486071.62,7565,3.31,73290.5,-9.95,-10.49,-10.49,0,*64
1512486072.82,7566,3.31,73296.0,-9.97,-10.53,-10.53,0,*65
1512486074.04,7567,3.31,73298.5,-9.95,-10.53,-10.53,0,*66
1512486075.26,7568,3.31,73298.5,-9.95,-10.49,-10.53,0,*62
1512486076.46,7569,3.31,73294.3,-9.97,-10.53,-10.53,0,*6A
1512486077.72,7570,3.31,73292.5,-9.95,-10.63,-10.49,0,*68
1512486078.94,7571,3.31,73298.0,-9.95,-10.49,-10.53,0,*6A
1512486080.19,7572,3.31,73306.5,-9.95,-10.53,-10.63,0,*61
1512486081.47,7573,3.31,73302.0,-9.95,-10.63,-10.63,0,*63
1512486082.76,7574,3.31,73304.5,-9.95,-10.67,-10.63,0,*60
1512486083.98,7575,3.31,73312.3,-9.95,-10.53,-10.49,0,*6E
1512486085.2,7576,3.31,73308.8,-9.95,-10.53,-10.53,0,*66
1512486086.42,7577,3.31,73316.8,-9.95,-10.49,-10.49,0,*67
1512486087.65,7578,3.31,73316.0,-9.95,-10.49,-10.53,0,*63
1512486088.87,7579,3.31,73318.3,-9.95,-10.49,-10.49,0,*69
1512486090.1,7580,3.31,73316.3,-9.95,-10.49,-10.49,0,*6F
1512486091.32,7581,3.31,73314.3,-9.95,-10.49,-10.49,0,*6E
1512486092.55,7582,3.31,73304.5,-9.95,-10.49,-10.49,0,*6D
1512486093.77,7583,3.31,73300.5,-9.95,-10.53,-10.53,0,*6C
1512486095.05,7584,3.31,73314.8,-9.95,-10.67,-10.63,0,*6F
1512486096.28,7585,3.31,73330.8,-9.91,-10.49,-10.57,0,*61
1512486097.48,7586,3.31,73342.0,-9.89,-10.57,-10.49,0,*6B
1512486098.71,7587,3.31,73370.0,-9.91,-10.45,-10.49,0,*60
1512486099.93,7588,3.31,73360.8,-9.91,-10.45,-10.45,0,*63
1512486101.16,7589,3.31,73348.5,-9.91,-10.49,-10.49,0,*62
1512486102.39,7590,3.31,73334.3,-9.91,-10.45,-10.45,0,*6A
1512486103.62,7591,3.31,73306.5,-9.91,-10.31,-10.31,0,*6B
1512486104.85,7592,3.31,73326.5,-9.91,-10.35,-10.31,0,*6C
1512486106.08,7593,3.31,73324.8,-9.91,-10.23,-10.31,0,*6A
1512486107.29,7594,3.31,73324.3,-9.91,-9.89,-9.89,0,*6E
1512486108.48,7595,3.31,73318.3,-9.89,-9.97,-10.05,0,*55
1512486109.69,7596,3.31,73306.5,-9.89,-10.19,-10.19,0,*65
1512486110.9,7597,3.31,73272.0,-9.89,-10.35,-10.35,0,*64
1512486112.13,7598,3.31,73270.0,-9.91,-10.49,-10.49,0,*62
1512486113.36,7599,3.31,73244.5,-9.89,-10.63,-10.57,0,*6D
1512486114.56,7600,3.31,73226.5,-9.89,-10.45,-10.49,0,*65
1512486115.76,7601,3.31,73230.5,-9.89,-10.49,-10.45,0,*64
1512486116.96,7602,3.31,73238.8,-9.89,-10.45,-10.45,0,*6B
1512486118.16,7603,3.31,73242.0,-9.89,-10.45,-10.49,0,*66
1512486119.36,7604,3.31,73226.3,-9.89,-10.49,-10.45,0,*61
1512486120.56,7605,3.31,73236.0,-9.89,-10.45,-10.45,0,*6C
1512486121.77,7606,3.31,73282.8,-9.89,-10.45,-10.35,0,*68
1512486122.98,7607,3.31,73300.5,-9.89,-10.31,-10.31,0,*6E
1512486124.18,7608,3.31,73300.8,-9.89,-10.23,-10.31,0,*62
1512486125.38,7609,3.31,73282.5,-9.89,-10.23,-10.23,0,*60
1512486126.59,7610,3.31,73266.8,-9.89,-10.35,-10.35,0,*68
1512486127.8,7611,3.31,73232.3,-9.89,-10.49,-10.49,0,*69
1512486129.0,7612,3.31,73226.5,-9.89,-10.49,-10.49,0,*6A
1512486130.2,7613,3.31,73216.3,-9.89,-10.45,-10.45,0,*6B
1512486131.4,7614,3.31,73222.0,-9.89,-10.49,-10.45,0,*60
1512486132.6,7615,3.31,73252.3,-9.89,-10.57,-10.57,0,*6D
1512486133.83,7616,3.31,73258.0,-9.89,-10.63,-10.57,0,*69
1512486135.03,7617,3.31,73264.0,-9.89,-10.57,-10.57,0,*6F
1512486136.24,7618,3.31,73268.3,-9.89,-10.57,-10.45,0,*63
1512486137.44,7619,3.31,73266.5,-9.89,-10.49,-10.49,0,*61
1512486138.64,7620,3.31,73276.5,-9.89,-10.49,-10.49,0,*6B
1512486139.86,7621,3.31,73276.3,-9.87,-10.45,-10.45,0,*64
1512486141.14,7622,3.31,73276.8,-9.87,-10.41,-10.41,0,*67
1512486142.37,7623,3.31,73276.3,-9.87,-10.45,-10.45,0,*66
1512486143.57,7624,3.31,73282.3,-9.89,-10.49,-10.49,0,*6F
1512486144.77,7625,3.31,73300.3,-9.89,-10.49,-10.45,0,*62
1512486145.99,7626,3.31,73312.0,-9.87,-10.45,-10.45,0,*63
1512486147.21,7627,3.31,73314.0,-9.87,-10.45,-10.45,0,*62
1512486148.44,7628,3.31,73318.0,-9.85,-10.45,-10.41,0,*6B
1512486149.64,7629,3.31,73322.3,-9.89,-10.49,-10.49,0,*62
1512486150.85,7630,3.31,73324.8,-9.89,-10.49,-10.49,0,*6A
1512486152.07,7631,3.31,73330.3,-9.87,-10.53,-10.45,0,*62
1512486153.29,7632,3.31,73326.8,-9.87,-10.53,-10.45,0,*61
1512486154.51,7633,3.31,73330.8,-9.87,-10.45,-10.45,0,*67
1512486155.73,7634,3.31,73338.0,-9.87,-10.45,-10.45,0,*60
1512486156.96,7635,3.31,73336.0,-9.87,-10.45,-10.45,0,*61
1512486158.18,7636,3.31,73328.8,-9.87,-10.45,-10.45,0,*62
1512486159.4,7637,3.31,73322.5,-9.87,-10.53,-10.45,0,*64
1512486160.65,7638,3.31,73314.5,-9.87,-10.41,-10.45,0,*68
1512486161.87,7639,3.31,73310.5,-9.87,-10.45,-10.45,0,*6D
1512486163.09,7640,3.31,73308.0,-9.87,-10.53,-10.45,0,*64
1512486164.31,7641,3.31,73308.5,-9.87,-10.53,-10.53,0,*62
1512486165.53,7642,3.31,73304.8,-9.87,-10.53,-10.53,0,*61
1512486166.75,7643,3.31,73312.5,-9.87,-10.53,-10.45,0,*67
1512486167.97,7644,3.31,73312.5,-9.87,-10.53,-10.45,0,*60
1512486169.19,7645,3.31,73320.3,-9.87,-10.53,-10.53,0,*66
1512486170.41,7646,3.31,73328.0,-9.87,-10.53,-10.53,0,*65
1512486171.64,7647,3.31,73338.8,-9.85,-10.45,-10.41,0,*62
1512486172.92,7648,3.31,73336.8,-9.87,-10.41,-10.41,0,*6B
1512486174.18,7649,3.31,73332.8,-9.87,-10.45,-10.41,0,*6E
1512486175.43,7650,3.31,73338.0,-9.87,-10.45,-10.41,0,*66
1512486176.71,7651,3.31,73336.5,-9.87,-10.41,-10.41,0,*63
1512486177.93,7652,3.31,73338.8,-9.87,-10.45,-10.53,0,*67
1512486179.13,7653,3.31,73352.3,-9.85,-10.53,-10.57,0,*67
1512486180.39,7654,3.31,73340.3,-9.87,-10.67,-10.57,0,*65
1512486181.66,7655,3.31,73324.0,-9.87,-10.71,-10.71,0,*67
1512486182.95,7656,3.31,73304.5,-9.87,-10.71,-10.67,0,*63
1512486184.22,7657,3.31,73298.3,-9.87,-10.71,-10.71,0,*65
1512486185.51,7658,3.31,73294.5,-9.87,-10.67,-10.67,0,*6A
1512486186.8,7659,3.31,73292.5,-9.87,-10.67,-10.67,0,*6B
1512486188.08,7660,3.31,73286.8,-9.87,-10.71,-10.71,0,*61
1512486189.33,7661,3.31,73284.5,-9.89,-10.71,-10.75,0,*6A
1512486190.61,7662,3.31,73286.5,-9.91,-10.71,-10.75,0,*60
1512486191.87,7663,3.31,73286.3,-9.89,-10.75,-10.71,0,*68
1512486193.12,7664,3.31,73286.8,-9.89,-10.71,-10.71,0,*6B
1512486194.35,7665,3.31,73286.5,-9.89,-10.63,-10.57,0,*6D
1512486195.61,7666,3.31,73288.0,-9.87,-10.67,-10.57,0,*64
1512486196.86,7667,3.31,73282.3,-9.91,-10.71,-10.57,0,*65
1512486198.12,7668,3.31,73282.3,-9.89,-10.63,-10.63,0,*67
1512486199.38,7669,3.31,73284.3,-9.89,-10.71,-10.63,0,*65
1512486200.6,7670,3.31,73286.3,-9.87,-10.53,-10.57,0,*64
1512486201.83,7671,3.31,73290.0,-9.87,-10.57,-10.57,0,*61
1512486203.03,7672,3.31,73288.0,-9.89,-10.45,-10.49,0,*60
1512486204.23,7673,3.31,73288.3,-9.89,-10.49,-10.49,0,*6D
1512486205.43,7674,3.31,73310.5,-9.89,-10.49,-10.49,0,*6A
1512486206.63,7675,3.31,73300.5,-9.89,-10.57,-10.49,0,*64
1512486207.85,7676,3.31,73316.3,-9.87,-10.45,-10.45,0,*66
1512486209.08,7677,3.31,73318.3,-9.87,-10.45,-10.45,0,*67
1512486210.3,7678,3.31,73328.0,-9.87,-10.45,-10.45,0,*68
1512486211.52,7679,3.31,73326.5,-9.87,-10.45,-10.45,0,*69
1512486212.78,7680,3.31,73322.5,-9.87,-10.45,-10.41,0,*6B
1512486214.03,7681,3.31,73330.8,-9.87,-10.41,-10.45,0,*6A
1512486215.25,7682,3.31,73308.0,-9.87,-10.45,-10.45,0,*6D
1512486216.48,7683,3.31,73298.8,-9.87,-10.45,-10.45,0,*6C
1512486217.68,7684,3.31,73300.8,-9.89,-10.49,-10.49,0,*65
1512486218.93,7685,3.31,73306.0,-9.87,-10.45,-10.41,0,*6E
1512486220.16,7686,3.31,73288.8,-9.87,-10.27,-10.27,0,*69
1512486221.39,7687,3.31,73270.8,-9.87,-10.19,-10.19,0,*68
1512486222.62,7688,3.31,73244.3,-9.85,-10.45,-10.41,0,*61
1512486223.88,7689,3.31,73220.5,-9.87,-10.45,-10.41,0,*62
1512486225.1,7690,3.31,73220.3,-9.87,-10.45,-10.45,0,*6E
1512486226.32,7691,3.31,73232.8,-9.87,-10.53,-10.53,0,*6F
1512486227.52,7692,3.31,73244.3,-9.85,-10.53,-10.53,0,*6E
1512486228.77,7693,3.31,73244.5,-9.87,-10.53,-10.41,0,*6E
1512486229.96,7694,3.31,73244.8,-9.85,-10.53,-10.45,0,*6F
1512486231.16,7695,3.31,73250.0,-9.85,-10.45,-10.45,0,*69
1512486232.36,7696,3.31,73246.8,-9.85,-10.45,-10.45,0,*6A
1512486233.59,7697,3.31,73264.8,-9.85,-10.45,-10.41,0,*6F
1512486234.81,7698,3.31,73264.8,-9.87,-10.45,-10.45,0,*66
1512486236.04,7699,3.31,73270.0,-9.87,-10.45,-10.45,0,*67
1512486237.29,7700,3.31,73268.3,-9.87,-10.41,-10.45,0,*62
1512486238.49,7701,3.31,73276.8,-9.85,-10.45,-10.45,0,*65
1512486239.69,7702,3.31,73276.3,-9.85,-10.45,-10.45,0,*66
1512486240.94,7703,3.31,73268.3,-9.87,-10.45,-10.41,0,*61
1512486242.14,7704,3.31,73276.3,-9.85,-10.45,-10.45,0,*60
1512486243.34,7705,3.31,73276.3,-9.85,-10.45,-10.45,0,*61
1512486244.62,7706,3.31,73320.8,-9.87,-10.41,-10.41,0,*60
1512486245.83,7707,3.31,73320.3,-9.85,-10.45,-10.45,0,*63
1512486247.05,7708,3.31,73306.5,-9.87,-10.45,-10.45,0,*6E
1512486248.28,7709,3.31,73296.8,-9.85,-10.45,-10.41,0,*69
1512486249.48,7710,3.31,73300.8,-9.85,-10.45,-10.45,0,*65
1512486250.71,7711,3.31,73326.3,-9.85,-10.31,-10.41,0,*63
1512486251.94,7712,3.31,73330.5,-9.83,-10.35,-10.35,0,*61
1512486253.14,7713,3.31,73326.5,-9.85,-10.45,-10.45,0,*66
1512486254.34,7714,3.31,73316.0,-9.85,-10.53,-10.57,0,*65
1512486255.56,7715,3.31,73308.3,-9.87,-10.53,-10.53,0,*62
1512486256.79,7716,3.31,73316.8,-9.85,-10.45,-10.41,0,*67
1512486258.02,7717,3.31,73322.3,-9.85,-10.41,-10.45,0,*66
1512486259.27,7718,3.31,73318.3,-9.85,-10.41,-10.41,0,*6D
1512486260.47,7719,3.31,73322.3,-9.85,-10.45,-10.53,0,*6B
1512486261.7,7720,3.31,73324.3,-9.87,-10.45,-10.45,0,*64
1512486262.96,7721,3.31,73322.0,-9.85,-10.41,-10.41,0,*67
1512486264.18,7722,3.31,73316.5,-9.85,-10.41,-10.45,0,*60
1512486265.41,7723,3.31,73316.5,-9.87,-10.45,-10.45,0,*67
1512486266.67,7724,3.31,73318.8,-9.85,-10.41,-10.41,0,*62
1512486267.87,7725,3.31,73314.5,-9.85,-10.45,-10.45,0,*63
1512486269.07,7726,3.31,73322.3,-9.85,-10.45,-10.45,0,*60
1512486270.29,7727,3.31,73316.3,-9.87,-10.45,-10.45,0,*63
1512486271.54,7728,3.31,73310.5,-9.87,-10.45,-10.41,0,*68
1512486272.74,7729,3.31,73302.5,-9.85,-10.53,-10.57,0,*6B
1512486273.99,7730,3.31,73296.0,-9.85,-10.71,-10.71,0,*67
1512486275.28,7731,3.31,73276.8,-9.87,-10.71,-10.67,0,*63
1512486276.47,7732,3.31,73266.8,-9.85,-10.53,-10.53,0,*65
1512486277.67,7733,3.31,73278.0,-9.85,-10.53,-10.53,0,*64
1512486278.87,7734,3.31,73268.8,-9.85,-10.57,-10.45,0,*60
1512486280.07,7735,3.31,73258.5,-9.85,-10.57,-10.53,0,*66
1512486281.33,7736,3.31,73266.5,-9.83,-10.35,-10.41,0,*64
1512486282.61,7737,3.31,73278.3,-9.83,-10.41,-10.41,0,*66
1512486283.81,7738,3.31,73270.8,-9.85,-10.57,-10.45,0,*6C
1512486285.07,7739,3.31,73260.3,-9.85,-10.71,-10.67,0,*69
1512486286.33,7740,3.31,73232.8,-9.85,-10.71,-10.67,0,*67
1512486287.59,7741,3.31,73202.8,-9.85,-10.67,-10.71,0,*66
1512486288.84,7742,3.31,73192.3,-9.85,-10.67,-10.71,0,*65
1512486290.11,7743,3.31,73186.0,-9.85,-10.67,-10.67,0,*63
1512486291.31,7744,3.31,73212.8,-9.85,-10.53,-10.53,0,*64
1512486292.5,7745,3.31,73226.5,-9.85,-10.53,-10.45,0,*62
1512486293.7,7746,3.31,73226.8,-9.85,-10.53,-10.53,0,*66
1512486294.9,7747,3.31,73224.8,-9.85,-10.57,-10.53,0,*63
1512486296.15,7748,3.31,73230.5,-9.87,-10.41,-10.31,0,*6D
1512486297.38,7749,3.31,73238.8,-9.85,-10.45,-10.41,0,*6D
1512486298.61,7750,3.31,73242.0,-9.85,-10.45,-10.41,0,*65
1512486299.81,7751,3.31,73236.8,-9.85,-10.45,-10.45,0,*60
1512486301.04,7752,3.31,73216.3,-9.87,-10.57,-10.53,0,*65
1512486302.27,7753,3.31,73230.5,-9.85,-10.57,-10.67,0,*61
1512486303.48,7754,3.31,73226.3,-9.85,-10.57,-10.57,0,*65
1512486304.69,7755,3.31,73224.8,-9.83,-10.53,-10.49,0,*69
1512486305.89,7756,3.31,73226.5,-9.85,-10.57,-10.53,0,*63
1512486307.09,7757,3.31,73282.8,-9.85,-10.45,-10.45,0,*66
1512486308.33,7758,3.31,73278.8,-9.83,-10.35,-10.35,0,*6F
1512486309.53,7759,3.31,73256.5,-9.85,-10.31,-10.31,0,*68
1512486310.76,7760,3.31,73256.5,-9.85,-10.45,-10.41,0,*66
1512486311.99,7761,3.31,73274.3,-9.83,-10.35,-10.35,0,*65
1512486313.22,7762,3.31,73292.3,-9.83,-10.35,-10.35,0,*66
1512486314.46,7763,3.31,73302.8,-9.83,-10.35,-10.35,0,*67
1512486315.69,7764,3.31,73294.8,-9.83,-10.35,-10.35,0,*60
1512486316.92,7765,3.31,73288.3,-9.83,-10.35,-10.35,0,*61
1512486318.15,7766,3.31,73294.8,-9.83,-10.35,-10.27,0,*61
1512486319.4,7767,3.31,73268.0,-9.83,-10.49,-10.41,0,*6B
1512486320.63,7768,3.31,73260.3,-9.81,-10.41,-10.35,0,*6D
1512486321.86,7769,3.31,73276.3,-9.81,-10.35,-10.41,0,*6C
1512486323.14,7770,3.31,73282.5,-9.83,-10.41,-10.41,0,*65
1512486324.4,7771,3.31,73278.8,-9.81,-10.41,-10.41,0,*66
1512486325.65,7772,3.31,73266.3,-9.81,-10.41,-10.41,0,*65
1512486326.93,7773,3.31,73256.3,-9.83,-10.41,-10.41,0,*66
1512486328.13,7774,3.31,73278.8,-9.81,-10.49,-10.49,0,*63
1512486329.35,7775,3.31,73270.0,-9.83,-10.49,-10.49,0,*60
1512486330.6,7776,3.31,73240.5,-9.83,-10.49,-10.41,0,*6B
1512486331.82,7777,3.31,73262.5,-9.81,-10.49,-10.41,0,*68
1512486333.02,7778,3.31,73264.0,-9.85,-10.53,-10.57,0,*6F
1512486334.28,7779,3.31,73254.0,-9.83,-10.41,-10.35,0,*6F
1512486335.51,7780,3.31,73246.5,-9.83,-10.35,-10.35,0,*6A
1512486336.74,7781,3.31,73250.8,-9.83,-10.35,-10.35,0,*6B
1512486338.0,7782,3.31,73244.3,-9.83,-10.35,-10.41,0,*6B
1512486339.23,7783,3.31,73250.3,-9.81,-10.35,-10.41,0,*68
1512486340.45,7784,3.31,73252.8,-9.83,-10.49,-10.49,0,*6E
1512486341.7,7785,3.31,73252.0,-9.81,-10.41,-10.41,0,*6D
1512486342.95,7786,3.31,73254.5,-9.83,-10.49,-10.41,0,*64
1512486344.21,7787,3.31,73258.0,-9.81,-10.41,-10.41,0,*6F
1512486345.46,7788,3.31,73262.3,-9.83,-10.35,-10.41,0,*61
1512486346.7,7789,3.31,73266.3,-9.81,-10.35,-10.41,0,*62
1512486347.92,7790,3.31,73268.5,-9.83,-10.23,-10.35,0,*6C
1512486349.13,7791,3.31,73270.5,-9.81,-10.27,-10.27,0,*68
1512486350.35,7792,3.31,73260.5,-9.83,-10.23,-10.27,0,*6D
1512486351.55,7793,3.31,73264.8,-9.81,-10.27,-10.23,0,*6E
1512486352.76,7794,3.31,73268.8,-9.81,-10.23,-10.27,0,*69
1512486353.95,7795,3.31,73276.8,-9.81,-10.23,-10.23,0,*6C
1512486355.15,7796,3.31,73278.8,-9.81,-10.23,-10.23,0,*6F
1512486356.35,7797,3.31,73278.8,-9.81,-10.27,-10.27,0,*6E
1512486357.56,7798,3.31,73276.3,-9.81,-10.15,-10.27,0,*60
1512486358.76,7799,3.31,73278.3,-9.81,-10.35,-10.23,0,*67
1512486359.97,7800,3.31,73286.0,-9.79,-10.19,-10.19,0,*68
1512486361.18,7801,3.31,73282.0,-9.79,-10.19,-10.23,0,*60
1512486362.37,7802,3.31,73292.0,-9.79,-10.23,-10.23,0,*6A
1512486363.58,7803,3.31,73296.8,-9.79,-10.19,-10.23,0,*62
1512486364.78,7804,3.31,73298.8,-9.79,-10.31,-10.19,0,*66
1512486365.99,7805,3.31,73304.8,-9.79,-10.23,-10.31,0,*6E
1512486367.19,7806,3.31,73312.5,-9.79,-10.45,-10.45,0,*6E
1512486368.41,7807,3.31,73322.0,-9.77,-10.49,-10.49,0,*61
1512486369.61,7808,3.31,73322.5,-9.79,-10.49,-10.49,0,*60
1512486370.85,7809,3.31,73304.3,-9.77,-10.57,-10.57,0,*6F
1512486372.08,7810,3.31,73296.3,-9.77,-10.57,-10.57,0,*67
1512486373.3,7811,3.31,73278.3,-9.79,-10.57,-10.63,0,*6F
1512486374.53,7812,3.31,73270.0,-9.79,-10.57,-10.63,0,*6C
1512486375.73,7813,3.31,73270.8,-9.79,-10.57,-10.57,0,*6A
1512486376.99,7814,3.31,73274.8,-9.79,-10.63,-10.63,0,*6D
1512486378.25,7815,3.31,73272.0,-9.79,-10.63,-10.63,0,*6C
1512486379.5,7816,3.31,73258.8,-9.79,-10.63,-10.63,0,*6F
1512486380.76,7817,3.31,73252.8,-9.81,-10.63,-10.63,0,*69
1512486381.98,7818,3.31,73250.5,-9.81,-10.63,-10.49,0,*6E
1512486383.18,7819,3.31,73262.3,-9.81,-10.53,-10.49,0,*6C
1512486384.37,7820,3.31,73276.3,-9.81,-10.53,-10.53,0,*6D
1512486385.59,7821,3.31,73274.0,-9.81,-10.53,-10.63,0,*6F
1512486386.79,7822,3.31,73270.8,-9.81,-10.49,-10.49,0,*6F
1512486388.05,7823,3.31,73266.5,-9.81,-10.41,-10.41,0,*6E
1512486389.24,7824,3.31,73270.5,-9.79,-10.45,-10.45,0,*6E
1512486390.44,7825,3.31,73274.3,-9.81,-10.49,-10.49,0,*68
1512486391.64,7826,3.31,73284.0,-9.81,-10.49,-10.49,0,*6B
1512486392.83,7827,3.31,73284.3,-9.81,-10.53,-10.49,0,*61
1512486394.07,7828,3.31,73286.8,-9.81,-10.35,-10.41,0,*66
1512486395.3,7829,3.31,73286.0,-9.83,-10.35,-10.35,0,*66
1512486396.53,7830,3.31,73288.0,-9.83,-10.35,-10.35,0,*6E
1512486397.76,7831,3.31,73284.8,-9.79,-10.41,-10.35,0,*69
1512486398.97,7832,3.31,73286.5,-9.79,-10.35,-10.35,0,*69
1512486400.18,7833,3.31,73280.0,-9.79,-10.35,-10.31,0,*6C
1512486401.38,7834,3.31,73294.3,-9.79,-10.31,-10.31,0,*6F
1512486402.59,7835,3.31,73296.8,-9.79,-10.35,-10.31,0,*6A
1512486403.8,7836,3.31,73290.5,-9.79,-10.35,-10.31,0,*69
1512486405.0,7837,3.31,73278.8,-9.79,-10.31,-10.31,0,*6C
1512486406.21,7838,3.31,73278.0,-9.79,-10.31,-10.35,0,*67
1512486407.42,7839,3.31,73274.0,-9.79,-10.35,-10.35,0,*62
1512486408.62,7840,3.31,73276.5,-9.79,-10.35,-10.45,0,*6B
1512486409.82,7841,3.31,73276.5,-9.79,-10.49,-10.45,0,*61
1512486411.02,7842,3.31,73276.5,-9.79,-10.49,-10.57,0,*61
1512486412.22,7843,3.31,73276.3,-9.79,-10.45,-10.49,0,*63
1512486413.45,7844,3.31,73276.8,-9.77,-10.45,-10.31,0,*65
1512486414.66,7845,3.31,73268.3,-9.79,-10.31,-10.31,0,*69
1512486415.86,7846,3.31,73268.3,-9.79,-10.45,-10.35,0,*6D
1512486417.07,7847,3.31,73282.3,-9.79,-10.35,-10.35,0,*6B
1512486418.27,7848,3.31,73286.0,-9.79,-10.45,-10.49,0,*68
1512486419.48,7849,3.31,73286.3,-9.79,-10.35,-10.35,0,*65
1512486420.69,7850,3.31,73292.8,-9.79,-10.35,-10.35,0,*6D
1512486421.9,7851,3.31,73300.8,-9.79,-10.35,-10.35,0,*6C
1512486423.1,7852,3.31,73302.0,-9.79,-10.31,-10.31,0,*6F
1512486424.31,7853,3.31,73288.3,-9.79,-10.31,-10.35,0,*6A
1512486425.52,7854,3.31,73288.8,-9.79,-10.35,-10.31,0,*6D
1512486426.73,7855,3.31,73286.3,-9.79,-10.35,-10.35,0,*68
1512486427.97,7856,3.31,73276.8,-9.77,-10.35,-10.35,0,*65
1512486429.18,7857,3.31,73274.8,-9.79,-10.35,-10.35,0,*6A
1512486430.38,7858,3.31,73252.3,-9.79,-10.31,-10.31,0,*65
1512486431.59,7859,3.31,73242.5,-9.79,-10.31,-10.31,0,*64
1512486432.8,7860,3.31,73246.0,-9.79,-10.31,-10.35,0,*6A
1512486434.03,7861,3.31,73254.5,-9.77,-10.23,-10.31,0,*62
1512486435.23,7862,3.31,73254.3,-9.79,-10.31,-10.31,0,*6C
1512486436.47,7863,3.31,73260.0,-9.77,-10.35,-10.35,0,*63
1512486437.68,7864,3.31,73290.5,-9.79,-10.35,-10.31,0,*6E
1512486438.92,7865,3.31,73296.5,-9.77,-10.23,-10.35,0,*62
1512486440.14,7866,3.31,73270.0,-9.77,-10.45,-10.49,0,*6A
1512486441.34,7867,3.31,73254.8,-9.79,-10.45,-10.45,0,*69
1512486442.54,7868,3.31,73254.3,-9.79,-10.49,-10.57,0,*69
1512486443.74,7869,3.31,73270.0,-9.79,-10.45,-10.49,0,*6B
1512486444.97,7870,3.31,73272.3,-9.77,-10.45,-10.45,0,*61
1512486446.17,7871,3.31,73272.0,-9.79,-10.31,-10.31,0,*6E
1512486447.38,7872,3.31,73286.0,-9.79,-10.35,-10.35,0,*6D
1512486448.62,7873,3.31,73286.8,-9.77,-10.31,-10.31,0,*62
1512486449.85,7874,3.31,73310.5,-9.77,-10.35,-10.31,0,*61
1512486451.09,7875,3.31,73294.8,-9.77,-10.45,-10.35,0,*63
1512486452.32,7876,3.31,73290.0,-9.77,-10.45,-10.45,0,*67
1512486453.52,7877,3.31,73294.5,-9.79,-10.49,-10.35,0,*63
1512486454.72,7878,3.31,73306.3,-9.79,-10.31,-10.31,0,*67
1512486455.96,7879,3.31,73302.5,-9.77,-10.35,-10.35,0,*68
1512486457.17,7880,3.31,73288.8,-9.75,-10.31,-10.27,0,*6B
1512486458.41,7881,3.31,73286.8,-9.77,-10.31,-10.35,0,*6B
1512486459.64,7882,3.31,73280.8,-9.77,-10.45,-10.31,0,*6F
1512486460.87,7883,3.31,73292.3,-9.77,-10.45,-10.35,0,*6A
1512486462.11,7884,3.31,73288.3,-9.77,-10.35,-10.31,0,*6E
1512486463.31,7885,3.31,73288.8,-9.79,-10.31,-10.31,0,*65
1512486464.55,7886,3.31,73280.8,-9.77,-10.35,-10.31,0,*6C
1512486465.79,7887,3.31,73292.8,-9.77,-10.35,-10.31,0,*6D
1512486466.99,7888,3.31,73290.5,-9.75,-10.31,-10.31,0,*64
1512486468.19,7889,3.31,73310.5,-9.75,-10.31,-10.27,0,*62
1512486469.43,7890,3.31,73326.0,-9.77,-10.35,-10.31,0,*6B
1512486470.66,7891,3.31,73332.8,-9.77,-10.31,-10.31,0,*6E
1512486471.9,7892,3.31,73336.5,-9.77,-10.31,-10.35,0,*69
1512486473.14,7893,3.31,73332.0,-9.77,-10.31,-10.35,0,*68
1512486474.37,7894,3.31,73318.0,-9.77,-10.23,-10.31,0,*68
1512486475.6,7895,3.31,73332.5,-9.73,-10.27,-10.27,0,*6E
1512486476.79,7896,3.31,73322.8,-9.75,-10.05,-10.05,0,*6B
1512486477.99,7897,3.31,73288.5,-9.75,-10.05,-10.19,0,*67
1512486479.2,7898,3.31,73270.3,-9.75,-10.19,-10.27,0,*68
1512486480.4,7899,3.31,73268.3,-9.75,-10.31,-10.31,0,*64
1512486481.6,7900,3.31,73264.3,-9.75,-10.31,-10.31,0,*65
1512486482.81,7901,3.31,73292.5,-9.75,-10.27,-10.31,0,*63
1512486484.01,7902,3.31,73370.3,-9.75,-10.27,-10.27,0,*67
1512486485.24,7903,3.31,73350.0,-9.73,-10.15,-10.19,0,*6C
1512486486.47,7904,3.31,73314.8,-9.73,-10.19,-10.15,0,*6B
1512486487.68,7905,3.31,73294.5,-9.75,-10.15,-10.19,0,*6C
1512486488.92,7906,3.31,73288.5,-9.73,-10.19,-10.19,0,*65
1512486490.15,7907,3.31,73306.3,-9.73,-10.15,-10.27,0,*65
1512486491.38,7908,3.31,73308.5,-9.73,-10.27,-10.27,0,*6B
1512486492.6,7909,3.31,73306.3,-9.73,-10.01,-10.01,0,*6A
1512486493.81,7910,3.31,73320.0,-9.73,-9.89,-9.89,0,*62
1512486495.01,7911,3.31,73300.0,-9.73,-9.89,-9.89,0,*63
1512486496.22,7912,3.31,73288.0,-9.73,-10.05,-10.05,0,*60
1512486497.46,7913,3.31,73252.3,-9.73,-10.19,-10.15,0,*6D
1512486498.69,7914,3.31,73232.3,-9.73,-10.19,-10.19,0,*66
1512486499.92,7915,3.31,73204.8,-9.73,-10.19,-10.15,0,*6B
1512486501.11,7916,3.31,73206.8,-9.75,-10.05,-10.05,0,*62
1512486502.29,7917,3.31,73134.0,-9.71,-9.97,-9.97,0,*67
1512486503.47,7918,3.31,73168.5,-9.67,-9.89,-9.89,0,*6F
1512486504.65,7919,3.31,73218.3,-9.71,-10.01,-9.97,0,*5E
1512486505.86,7920,3.31,73224.8,-9.71,-10.15,-10.01,0,*66
1512486507.05,7921,3.31,73262.3,-9.71,-10.09,-10.09,0,*62